Regional Weather Roundup
Issued by NWS

Home | Current Version | Previous Version | Text Only | Print | Product List | Glossary On
Versions: 1 2 3 4 5 6 7 8 9 10 11 12 13 14 15 16 17 18 19 20 21 22 23 24 25 26 27 28 29 30 31 32 33 34 35 36 37 38 39 40 41 42 43 44 45 46 47 48 49 50
000
ASUS43 KFSD 220210
RWRSD

WEATHER ROUNDUP FOR SOUTH DAKOTA
NATIONAL WEATHER SERVICE SIOUX FALLS SD
800 PM CST SUN DEC 21 2014

NOTE: "FAIR" INDICATES FEW OR NO CLOUDS BELOW 12,000 FEET WITH NO
SIGNIFICANT WEATHER AND/OR OBSTRUCTIONS TO VISIBILITY.


SDZ001>005-009-010-012>017-220300-
NORTHWEST AND NORTH CENTRAL SOUTH DAKOTA

CITY           SKY/WX    TMP DP  RH WIND       PRES   REMARKS
BUFFALO          N/A     39  36  89 W20       29.34R
FAITH            N/A     38  35  89 W7        29.40S
MOBRIDGE       CLOUDY    30  29  96 E8        29.42R FOG     WCI  22
$$

SDZ012>016-024>037-041>051-057-063-072>074-220300-
SOUTHWEST AND SOUTH CENTRAL SOUTH DAKOTA

CITY           SKY/WX    TMP DP  RH WIND       PRES   REMARKS
RAPID CTY ARPT MOCLDY    39  34  82 N12       29.44F
PIERRE         CLOUDY    29  27  92 NE6       29.40S WCI  23
CUSTER         PTCLDY    36  27  69 W9        29.45S
ELLSWORTH AFB  PTCLDY    39  34  84 NW13      29.43F
PHILIP         LGT RAIN  36  30  79 W5        29.43R
PINE RIDGE     CLOUDY    39  30  70 W6        29.45R
SPEARFISH      CLOUDY    39  32  75 NW14G20   29.47R
WINNER         MOCLDY    41  31  67 S14       29.41R
$$

SDZ004>011-016>023-039-040-220300-
NORTHEAST SOUTH DAKOTA

CITY           SKY/WX    TMP DP  RH WIND       PRES   REMARKS
ABERDEEN       CLOUDY    36  33  89 S12       29.48F
WATERTOWN      CLOUDY    35  34  96 S17       29.50F FOG     WCI  25
SISSETON         N/A     33  33 100 SE10      29.53F WCI  25
$$

SDZ017-020-022-023-036>040-048>070-220300-
SOUTHEAST SOUTH DAKOTA

CITY           SKY/WX    TMP DP  RH WIND       PRES   REMARKS
SIOUX FALLS    CLOUDY    38  37  97 S17G26    29.56F
HURON          MOCLDY    35  32  88 SE14      29.47S WCI  26
CHAMBERLAIN    MOCLDY    32  30  93 SE7       29.41S WCI  26
MITCHELL       CLOUDY    37  35  92 S15       29.48F
YANKTON        CLOUDY    41  37  87 SE15      29.55F
$$

ABBREVIATIONS USED IN REMARKS
   TC - TEMPERATURE IN CELSIUS
  WCI - WIND CHILL INDEX
   HX - HEAT INDEX
  VSB - VISIBILITY



USA.gov is the U.S. government's official web portal to all federal, state and local government web resources and services.